Wetterdaten: Woche 09.10.17 - 15.10.17 (KW41)
Datum Zeit Temp. 2m rel. Feuchte Luftdruck Regen Wind Richtung Sonne ET UV-Index Solar Taupunkt Ben
09.10.2017 00:00 10,1 C 97 % 1020,5 hPa 0,0 mm 0,9 km/h (0 Bft) O 0,00 h 0,0 mm 0,0 UV-I 0 W/m 9,7 C 2,8 km/h (1 Bft)
09.10.2017 01:00 10,3 C 97 % 1020,5 hPa 0,0 mm 0,7 km/h (0 Bft) O 0,00 h 0,0 mm 0,0 UV-I 0 W/m 9,9 C 2,9 km/h (1 Bft)
09.10.2017 02:00 10,1 C 97 % 1020,6 hPa 0,0 mm 0,0 km/h (0 Bft) N 0,00 h 0,0 mm 0,0 UV-I 0 W/m 9,7 C 0,0 km/h (0 Bft)
09.10.2017 03:00 9,8 C 97 % 1020,4 hPa 0,0 mm 0,1 km/h (0 Bft) O 0,00 h 0,0 mm 0,0 UV-I 0 W/m 9,3 C 0,6 km/h (0 Bft)
09.10.2017 04:00 9,8 C 97 % 1020,3 hPa 0,0 mm 0,8 km/h (0 Bft) O 0,00 h 0,0 mm 0,0 UV-I 0 W/m 9,3 C 2,6 km/h (1 Bft)
09.10.2017 05:00 9,9 C 97 % 1020,4 hPa 0,0 mm 0,0 km/h (0 Bft) N 0,00 h 0,0 mm 0,0 UV-I 0 W/m 9,5 C 0,4 km/h (0 Bft)
09.10.2017 06:00 10,1 C 97 % 1020,3 hPa 0,0 mm 0,2 km/h (0 Bft) N 0,00 h 0,0 mm 0,0 UV-I 0 W/m 9,6 C 1,1 km/h (1 Bft)
09.10.2017 07:00 10,0 C 97 % 1020,2 hPa 0,0 mm 0,0 km/h (0 Bft) N 0,00 h 0,0 mm 0,0 UV-I 4 W/m 9,6 C 0,6 km/h (0 Bft)
09.10.2017 08:00 10,1 C 97 % 1020,1 hPa 0,0 mm 0,4 km/h (0 Bft) O 0,00 h 0,0 mm 0,0 UV-I 12 W/m 9,7 C 2,4 km/h (1 Bft)
09.10.2017 09:00 10,3 C 97 % 1020,3 hPa 0,2 mm 0,5 km/h (0 Bft) O 0,00 h 0,0 mm 0,0 UV-I 21 W/m 9,8 C 2,4 km/h (1 Bft)
09.10.2017 10:00 10,3 C 97 % 1020,5 hPa 0,0 mm 0,3 km/h (0 Bft) O 0,00 h 0,0 mm 0,0 UV-I 32 W/m 9,7 C 2,0 km/h (1 Bft)
09.10.2017 11:00 10,6 C 97 % 1020,6 hPa 0,2 mm 0,9 km/h (0 Bft) O 0,00 h 0,0 mm 0,2 UV-I 98 W/m 10,1 C 3,7 km/h (1 Bft)
09.10.2017 12:00 11,3 C 96 % 1020,5 hPa 0,0 mm 0,8 km/h (0 Bft) O 0,00 h 0,1 mm 0,1 UV-I 77 W/m 10,7 C 4,1 km/h (1 Bft)
09.10.2017 13:00 12,0 C 96 % 1019,9 hPa 0,0 mm 0,7 km/h (0 Bft) O 0,00 h 0,0 mm 0,1 UV-I 74 W/m 11,3 C 3,5 km/h (1 Bft)
09.10.2017 14:00 12,3 C 96 % 1019,4 hPa 0,0 mm 0,5 km/h (0 Bft) O 0,00 h 0,0 mm 0,1 UV-I 57 W/m 11,7 C 2,9 km/h (1 Bft)
09.10.2017 15:00 12,7 C 96 % 1019,0 hPa 0,0 mm 0,3 km/h (0 Bft) N 0,00 h 0,0 mm 0,1 UV-I 41 W/m 12,1 C 1,8 km/h (1 Bft)
09.10.2017 16:00 12,9 C 96 % 1018,6 hPa 0,0 mm 0,2 km/h (0 Bft) N 0,00 h 0,0 mm 0,0 UV-I 31 W/m 12,3 C 1,8 km/h (1 Bft)
09.10.2017 17:00 12,9 C 96 % 1018,3 hPa 0,0 mm 0,3 km/h (0 Bft) N 0,00 h 0,0 mm 0,0 UV-I 10 W/m 12,3 C 1,7 km/h (1 Bft)
09.10.2017 18:00 12,8 C 96 % 1018,2 hPa 0,0 mm 1,0 km/h (0 Bft) O 0,00 h 0,0 mm 0,0 UV-I 5 W/m 12,2 C 3,5 km/h (1 Bft)
09.10.2017 19:00 12,5 C 96 % 1018,2 hPa 0,0 mm 0,0 km/h (0 Bft) N 0,00 h 0,0 mm 0,0 UV-I 0 W/m 11,9 C 0,2 km/h (0 Bft)
09.10.2017 20:00 12,3 C 96 % 1018,2 hPa 0,2 mm 0,0 km/h (0 Bft) N 0,00 h 0,0 mm 0,0 UV-I 0 W/m 11,7 C 0,2 km/h (0 Bft)
09.10.2017 21:00 12,1 C 97 % 1018,0 hPa 0,0 mm 0,2 km/h (0 Bft) O 0,00 h 0,0 mm 0,0 UV-I 0 W/m 11,6 C 2,0 km/h (1 Bft)
09.10.2017 22:00 11,9 C 97 % 1017,8 hPa 0,0 mm 0,1 km/h (0 Bft) N 0,00 h 0,0 mm 0,0 UV-I 0 W/m 11,5 C 1,3 km/h (1 Bft)
09.10.2017 23:00 11,8 C 97 % 1017,7 hPa 0,0 mm 0,4 km/h (0 Bft) O 0,00 h 0,0 mm 0,0 UV-I 0 W/m 11,4 C 2,0 km/h (1 Bft)
10.10.2017 00:00 11,9 C 95 % 1017,2 hPa 0,0 mm 1,1 km/h (1 Bft) O 0,00 h 0,0 mm 0,0 UV-I 0 W/m 11,1 C 4,6 km/h (1 Bft)
10.10.2017 01:00 11,9 C 94 % 1016,7 hPa 0,0 mm 0,3 km/h (0 Bft) N 0,00 h 0,0 mm 0,0 UV-I 0 W/m 10,9 C 2,2 km/h (1 Bft)
10.10.2017 02:00 11,7 C 95 % 1016,3 hPa 0,0 mm 0,1 km/h (0 Bft) N 0,00 h 0,0 mm 0,0 UV-I 0 W/m 10,9 C 1,1 km/h (1 Bft)
10.10.2017 03:00 11,7 C 95 % 1016,0 hPa 0,0 mm 1,8 km/h (1 Bft) O-NO 0,00 h 0,0 mm 0,0 UV-I 0 W/m 10,9 C 6,3 km/h (2 Bft)
10.10.2017 04:00 12,3 C 92 % 1015,6 hPa 0,0 mm 1,8 km/h (1 Bft) W-SW 0,00 h 0,0 mm 0,0 UV-I 0 W/m 11,1 C 5,9 km/h (2 Bft)
10.10.2017 05:00 12,2 C 95 % 1015,3 hPa 0,0 mm 0,4 km/h (0 Bft) W 0,00 h 0,0 mm 0,0 UV-I 0 W/m 11,3 C 2,8 km/h (1 Bft)
10.10.2017 06:00 12,0 C 96 % 1015,1 hPa 0,4 mm 1,2 km/h (1 Bft) SO 0,00 h 0,0 mm 0,0 UV-I 0 W/m 11,3 C 5,0 km/h (1 Bft)
10.10.2017 07:00 12,2 C 97 % 1015,1 hPa 0,2 mm 3,4 km/h (1 Bft) W 0,00 h 0,0 mm 0,0 UV-I 0 W/m 11,7 C 9,6 km/h (2 Bft)
10.10.2017 08:00 12,5 C 97 % 1015,3 hPa 0,2 mm 6,2 km/h (2 Bft) W 0,00 h 0,0 mm 0,0 UV-I 13 W/m 12,0 C 16,1 km/h (3 Bft)
10.10.2017 09:00 12,8 C 96 % 1015,9 hPa 0,0 mm 7,8 km/h (2 Bft) W-SW 0,00 h 0,0 mm 0,0 UV-I 31 W/m 12,2 C 17,2 km/h (3 Bft)
10.10.2017 10:00 13,4 C 93 % 1016,2 hPa 0,0 mm 8,2 km/h (2 Bft) W 0,00 h 0,0 mm 0,2 UV-I 76 W/m 12,3 C 19,8 km/h (4 Bft)
10.10.2017 11:00 14,2 C 89 % 1016,3 hPa 0,0 mm 8,6 km/h (2 Bft) W 0,00 h 0,1 mm 0,2 UV-I 94 W/m 12,4 C 18,9 km/h (3 Bft)
10.10.2017 12:00 14,2 C 87 % 1016,4 hPa 0,0 mm 10,1 km/h (2 Bft) W 0,00 h 0,1 mm 0,2 UV-I 122 W/m 12,1 C 21,6 km/h (4 Bft)
10.10.2017 13:00 14,9 C 84 % 1016,5 hPa 0,0 mm 8,7 km/h (2 Bft) W 0,00 h 0,1 mm 0,2 UV-I 152 W/m 12,1 C 20,4 km/h (4 Bft)
10.10.2017 14:00 15,9 C 78 % 1016,4 hPa 0,0 mm 10,1 km/h (2 Bft) W 0,08 h 0,1 mm 0,3 UV-I 204 W/m 12,0 C 22,4 km/h (4 Bft)
10.10.2017 15:00 15,6 C 80 % 1016,4 hPa 0,0 mm 9,7 km/h (2 Bft) W 0,00 h 0,1 mm 0,1 UV-I 94 W/m 12,1 C 22,2 km/h (4 Bft)
10.10.2017 16:00 15,8 C 81 % 1016,4 hPa 0,0 mm 9,9 km/h (2 Bft) W 0,33 h 0,1 mm 0,2 UV-I 191 W/m 12,5 C 23,9 km/h (4 Bft)
10.10.2017 17:00 15,8 C 82 % 1016,4 hPa 0,0 mm 8,3 km/h (2 Bft) O 0,08 h 0,1 mm 0,0 UV-I 90 W/m 12,7 C 19,2 km/h (3 Bft)
10.10.2017 18:00 15,4 C 83 % 1016,7 hPa 0,0 mm 6,9 km/h (2 Bft) S-SW 0,08 h 0,1 mm 0,0 UV-I 23 W/m 12,6 C 16,1 km/h (3 Bft)
10.10.2017 19:00 15,0 C 86 % 1017,0 hPa 0,0 mm 4,7 km/h (1 Bft) SW 0,00 h 0,0 mm 0,0 UV-I 0 W/m 12,6 C 12,9 km/h (3 Bft)
10.10.2017 20:00 14,8 C 87 % 1017,0 hPa 0,0 mm 5,8 km/h (2 Bft) W 0,00 h 0,0 mm 0,0 UV-I 0 W/m 12,6 C 14,4 km/h (3 Bft)
10.10.2017 21:00 14,7 C 86 % 1017,2 hPa 0,0 mm 5,1 km/h (1 Bft) W 0,00 h 0,0 mm 0,0 UV-I 0 W/m 12,3 C 14,1 km/h (3 Bft)
10.10.2017 22:00 14,6 C 86 % 1017,3 hPa 0,0 mm 7,0 km/h (2 Bft) W-SW 0,00 h 0,0 mm 0,0 UV-I 0 W/m 12,3 C 15,9 km/h (3 Bft)
10.10.2017 23:00 14,6 C 85 % 1017,5 hPa 0,0 mm 7,0 km/h (2 Bft) S-SW 0,00 h 0,0 mm 0,0 UV-I 0 W/m 12,1 C 16,5 km/h (3 Bft)
11.10.2017 00:00 14,1 C 87 % 1017,3 hPa 0,0 mm 5,2 km/h (1 Bft) SW 0,00 h 0,0 mm 0,0 UV-I 0 W/m 11,9 C 12,9 km/h (3 Bft)
11.10.2017 01:00 14,1 C 87 % 1017,2 hPa 0,0 mm 6,2 km/h (2 Bft) W 0,00 h 0,0 mm 0,0 UV-I 0 W/m 12,0 C 17,4 km/h (3 Bft)
11.10.2017 02:00 14,1 C 85 % 1017,1 hPa 0,0 mm 6,5 km/h (2 Bft) W-SW 0,00 h 0,0 mm 0,0 UV-I 0 W/m 11,7 C 15,3 km/h (3 Bft)
11.10.2017 03:00 13,5 C 86 % 1016,9 hPa 0,0 mm 2,5 km/h (1 Bft) SW 0,00 h 0,0 mm 0,0 UV-I 0 W/m 11,3 C 8,3 km/h (2 Bft)
11.10.2017 04:00 13,0 C 88 % 1016,7 hPa 0,0 mm 1,8 km/h (1 Bft) S 0,00 h 0,0 mm 0,0 UV-I 0 W/m 11,1 C 7,8 km/h (2 Bft)
11.10.2017 05:00 12,7 C 88 % 1016,6 hPa 0,0 mm 3,5 km/h (1 Bft) S-SW 0,00 h 0,0 mm 0,0 UV-I 0 W/m 10,7 C 12,0 km/h (2 Bft)
11.10.2017 06:00 12,7 C 89 % 1016,5 hPa 0,0 mm 2,8 km/h (1 Bft) S-SW 0,00 h 0,0 mm 0,0 UV-I 0 W/m 10,9 C 10,2 km/h (2 Bft)
11.10.2017 07:00 13,7 C 87 % 1016,4 hPa 0,0 mm 7,9 km/h (2 Bft) W 0,00 h 0,0 mm 0,0 UV-I 0 W/m 11,5 C 19,1 km/h (3 Bft)
11.10.2017 08:00 13,7 C 87 % 1016,8 hPa 0,0 mm 3,5 km/h (1 Bft) S-SW 0,00 h 0,0 mm 0,0 UV-I 18 W/m 11,5 C 9,8 km/h (2 Bft)
11.10.2017 09:00 13,9 C 86 % 1017,2 hPa 0,0 mm 3,5 km/h (1 Bft) W 0,00 h 0,0 mm 0,0 UV-I 29 W/m 11,5 C 12,0 km/h (2 Bft)
11.10.2017 10:00 14,5 C 81 % 1017,3 hPa 0,0 mm 7,3 km/h (2 Bft) W 0,00 h 0,0 mm 0,2 UV-I 61 W/m 11,2 C 19,1 km/h (3 Bft)
11.10.2017 11:00 14,9 C 78 % 1017,3 hPa 0,0 mm 6,4 km/h (2 Bft) SW 0,00 h 0,1 mm 0,2 UV-I 76 W/m 11,1 C 16,7 km/h (3 Bft)
11.10.2017 12:00 15,0 C 78 % 1017,3 hPa 0,0 mm 8,2 km/h (2 Bft) S 0,00 h 0,1 mm 0,2 UV-I 53 W/m 11,1 C 19,4 km/h (3 Bft)
11.10.2017 13:00 15,0 C 77 % 1017,1 hPa 0,0 mm 7,3 km/h (2 Bft) W 0,00 h 0,1 mm 0,2 UV-I 60 W/m 11,0 C 18,5 km/h (3 Bft)
11.10.2017 14:00 15,0 C 77 % 1016,7 hPa 0,0 mm 6,4 km/h (2 Bft) W 0,00 h 0,1 mm 0,2 UV-I 53 W/m 11,0 C 16,8 km/h (3 Bft)
11.10.2017 15:00 15,2 C 77 % 1016,2 hPa 0,0 mm 5,1 km/h (1 Bft) W-SW 0,00 h 0,1 mm 0,2 UV-I 54 W/m 11,2 C 13,9 km/h (3 Bft)
11.10.2017 16:00 15,5 C 77 % 1015,6 hPa 0,0 mm 3,9 km/h (1 Bft) S 0,00 h 0,1 mm 0,2 UV-I 93 W/m 11,5 C 11,3 km/h (2 Bft)
11.10.2017 17:00 15,9 C 75 % 1015,3 hPa 0,0 mm 5,1 km/h (1 Bft) W 0,00 h 0,1 mm 0,0 UV-I 36 W/m 11,5 C 14,4 km/h (3 Bft)
11.10.2017 18:00 16,1 C 71 % 1015,0 hPa 0,0 mm 5,2 km/h (1 Bft) S-SW 0,00 h 0,0 mm 0,0 UV-I 10 W/m 10,8 C 13,7 km/h (3 Bft)
11.10.2017 19:00 15,6 C 75 % 1015,0 hPa 0,0 mm 2,2 km/h (1 Bft) S-SO 0,00 h 0,0 mm 0,0 UV-I 0 W/m 11,3 C 6,3 km/h (2 Bft)
11.10.2017 20:00 15,1 C 79 % 1015,4 hPa 0,0 mm 2,9 km/h (1 Bft) S-SO 0,00 h 0,0 mm 0,0 UV-I 0 W/m 11,4 C 8,0 km/h (2 Bft)
11.10.2017 21:00 14,8 C 80 % 1015,3 hPa 0,0 mm 5,0 km/h (1 Bft) S-SW 0,00 h 0,0 mm 0,0 UV-I 0 W/m 11,4 C 13,1 km/h (3 Bft)
11.10.2017 22:00 14,9 C 79 % 1015,3 hPa 0,0 mm 4,7 km/h (1 Bft) W-SW 0,00 h 0,0 mm 0,0 UV-I 0 W/m 11,3 C 14,1 km/h (3 Bft)
11.10.2017 23:00 15,0 C 78 % 1015,2 hPa 0,0 mm 5,7 km/h (1 Bft) S-SO 0,00 h 0,0 mm 0,0 UV-I 0 W/m 11,2 C 14,0 km/h (3 Bft)
12.10.2017 00:00 14,8 C 79 % 1014,8 hPa 0,0 mm 4,6 km/h (1 Bft) S-SO 0,00 h 0,0 mm 0,0 UV-I 0 W/m 11,2 C 12,2 km/h (2 Bft)
12.10.2017 01:00 14,4 C 81 % 1014,5 hPa 0,0 mm 4,7 km/h (1 Bft) S-SO 0,00 h 0,0 mm 0,0 UV-I 0 W/m 11,2 C 13,0 km/h (3 Bft)
12.10.2017 02:00 15,0 C 80 % 1014,3 hPa 0,0 mm 5,2 km/h (1 Bft) S-SO 0,00 h 0,0 mm 0,0 UV-I 0 W/m 11,5 C 14,2 km/h (3 Bft)
12.10.2017 03:00 15,6 C 79 % 1014,2 hPa 0,0 mm 8,5 km/h (2 Bft) W-NW 0,00 h 0,0 mm 0,0 UV-I 0 W/m 11,9 C 21,3 km/h (4 Bft)
12.10.2017 04:00 15,8 C 81 % 1014,5 hPa 0,0 mm 13,5 km/h (3 Bft) W 0,00 h 0,0 mm 0,0 UV-I 0 W/m 12,4 C 32,0 km/h (5 Bft)
12.10.2017 05:00 15,4 C 83 % 1014,9 hPa 0,0 mm 11,3 km/h (2 Bft) W-SW 0,00 h 0,0 mm 0,0 UV-I 0 W/m 12,5 C 24,8 km/h (4 Bft)
12.10.2017 06:00 15,1 C 84 % 1015,8 hPa 0,0 mm 11,0 km/h (2 Bft) W-NW 0,00 h 0,0 mm 0,0 UV-I 0 W/m 12,5 C 25,2 km/h (4 Bft)
12.10.2017 07:00 14,8 C 81 % 1016,8 hPa 0,0 mm 17,5 km/h (3 Bft) W-NW 0,00 h 0,0 mm 0,0 UV-I 7 W/m 11,5 C 36,8 km/h (5 Bft)
12.10.2017 08:00 13,7 C 82 % 1018,2 hPa 0,0 mm 5,6 km/h (1 Bft) W-NW 0,08 h 0,0 mm 0,1 UV-I 37 W/m 10,7 C 19,1 km/h (3 Bft)
12.10.2017 09:00 13,6 C 81 % 1019,5 hPa 0,0 mm 6,8 km/h (2 Bft) W 0,33 h 0,0 mm 0,2 UV-I 125 W/m 10,4 C 22,0 km/h (4 Bft)
12.10.2017 10:00 14,1 C 80 % 1020,5 hPa 0,0 mm 11,6 km/h (2 Bft) O 0,50 h 0,1 mm 0,3 UV-I 249 W/m 10,8 C 26,5 km/h (4 Bft)
12.10.2017 11:00 15,5 C 73 % 1020,9 hPa 0,0 mm 13,3 km/h (3 Bft) W 0,75 h 0,2 mm 0,4 UV-I 389 W/m 10,5 C 28,5 km/h (4 Bft)
12.10.2017 12:00 15,9 C 67 % 1021,7 hPa 0,0 mm 14,4 km/h (3 Bft) W-NW 0,83 h 0,2 mm 0,4 UV-I 380 W/m 9,7 C 29,8 km/h (5 Bft)
12.10.2017 13:00 16,3 C 64 % 1022,2 hPa 0,0 mm 15,0 km/h (3 Bft) W 0,75 h 0,3 mm 0,4 UV-I 404 W/m 9,4 C 30,7 km/h (5 Bft)
12.10.2017 14:00 16,2 C 64 % 1022,2 hPa 0,0 mm 12,4 km/h (3 Bft) W-NW 0,42 h 0,3 mm 0,3 UV-I 241 W/m 9,3 C 26,3 km/h (4 Bft)
12.10.2017 15:00 16,6 C 63 % 1022,5 hPa 0,0 mm 12,4 km/h (3 Bft) W 0,50 h 0,2 mm 0,2 UV-I 268 W/m 9,4 C 25,7 km/h (4 Bft)
12.10.2017 16:00 16,4 C 63 % 1022,8 hPa 0,0 mm 13,2 km/h (3 Bft) NW 0,75 h 0,2 mm 0,1 UV-I 230 W/m 9,4 C 25,2 km/h (4 Bft)
12.10.2017 17:00 16,3 C 65 % 1023,1 hPa 0,0 mm 9,0 km/h (2 Bft) W 0,83 h 0,2 mm 0,0 UV-I 147 W/m 9,6 C 21,5 km/h (4 Bft)
12.10.2017 18:00 15,0 C 69 % 1023,4 hPa 0,0 mm 4,2 km/h (1 Bft) O 0,08 h 0,1 mm 0,0 UV-I 20 W/m 9,4 C 10,7 km/h (2 Bft)
12.10.2017 19:00 13,6 C 75 % 1023,6 hPa 0,0 mm 0,4 km/h (0 Bft) S-SW 0,00 h 0,0 mm 0,0 UV-I 0 W/m 9,1 C 2,4 km/h (1 Bft)
12.10.2017 20:00 12,0 C 81 % 1023,8 hPa 0,0 mm 0,2 km/h (0 Bft) S 0,00 h 0,0 mm 0,0 UV-I 0 W/m 8,8 C 1,1 km/h (1 Bft)
12.10.2017 21:00 11,1 C 86 % 1024,0 hPa 0,0 mm 1,7 km/h (1 Bft) S 0,00 h 0,0 mm 0,0 UV-I 0 W/m 8,8 C 5,7 km/h (1 Bft)
12.10.2017 22:00 11,1 C 86 % 1024,3 hPa 0,0 mm 2,1 km/h (1 Bft) S 0,00 h 0,0 mm 0,0 UV-I 0 W/m 8,9 C 5,2 km/h (1 Bft)
12.10.2017 23:00 10,8 C 87 % 1024,3 hPa 0,0 mm 3,8 km/h (1 Bft) S 0,00 h 0,0 mm 0,0 UV-I 0 W/m 8,7 C 8,1 km/h (2 Bft)
13.10.2017 00:00 10,7 C 88 % 1024,1 hPa 0,0 mm 2,2 km/h (1 Bft) S 0,00 h 0,0 mm 0,0 UV-I 0 W/m 8,7 C 6,6 km/h (2 Bft)
13.10.2017 01:00 10,5 C 89 % 1024,2 hPa 0,0 mm 0,1 km/h (0 Bft) N 0,00 h 0,0 mm 0,0 UV-I 0 W/m 8,8 C 1,3 km/h (1 Bft)
13.10.2017 02:00 10,1 C 91 % 1024,5 hPa 0,0 mm 0,0 km/h (0 Bft) N 0,00 h 0,0 mm 0,0 UV-I 0 W/m 8,6 C 0,4 km/h (0 Bft)
13.10.2017 03:00 10,0 C 93 % 1024,5 hPa 0,0 mm 0,7 km/h (0 Bft) S 0,00 h 0,0 mm 0,0 UV-I 0 W/m 8,9 C 2,4 km/h (1 Bft)
13.10.2017 04:00 10,2 C 93 % 1024,2 hPa 0,0 mm 1,1 km/h (1 Bft) S 0,00 h 0,0 mm 0,0 UV-I 0 W/m 9,2 C 3,7 km/h (1 Bft)
13.10.2017 05:00 10,2 C 95 % 1024,3 hPa 0,0 mm 0,5 km/h (0 Bft) S 0,00 h 0,0 mm 0,0 UV-I 0 W/m 9,4 C 2,2 km/h (1 Bft)
13.10.2017 06:00 10,8 C 96 % 1024,4 hPa 0,0 mm 0,8 km/h (0 Bft) S 0,00 h 0,0 mm 0,0 UV-I 0 W/m 10,2 C 3,7 km/h (1 Bft)
13.10.2017 07:00 11,5 C 95 % 1024,5 hPa 0,0 mm 1,8 km/h (1 Bft) S 0,00 h 0,0 mm 0,0 UV-I 0 W/m 10,8 C 5,5 km/h (1 Bft)
13.10.2017 08:00 12,1 C 95 % 1024,7 hPa 0,0 mm 1,2 km/h (1 Bft) S 0,00 h 0,0 mm 0,1 UV-I 19 W/m 11,3 C 4,0 km/h (1 Bft)
13.10.2017 09:00 13,3 C 95 % 1024,9 hPa 0,0 mm 1,5 km/h (1 Bft) S-SW 0,00 h 0,0 mm 0,1 UV-I 43 W/m 12,5 C 4,4 km/h (1 Bft)
13.10.2017 10:00 14,3 C 94 % 1025,5 hPa 0,0 mm 1,2 km/h (1 Bft) O 0,00 h 0,0 mm 0,2 UV-I 70 W/m 13,3 C 4,2 km/h (1 Bft)
13.10.2017 11:00 15,6 C 93 % 1025,5 hPa 0,0 mm 1,0 km/h (0 Bft) SW 0,00 h 0,0 mm 0,4 UV-I 144 W/m 14,4 C 4,8 km/h (1 Bft)
13.10.2017 12:00 18,2 C 83 % 1025,5 hPa 0,0 mm 7,2 km/h (2 Bft) W-SW 0,92 h 0,1 mm 0,8 UV-I 451 W/m 15,3 C 17,8 km/h (3 Bft)
13.10.2017 13:00 19,7 C 76 % 1025,4 hPa 0,0 mm 9,7 km/h (2 Bft) S 1,00 h 0,3 mm 0,9 UV-I 536 W/m 15,3 C 21,1 km/h (4 Bft)
13.10.2017 14:00 20,2 C 72 % 1025,2 hPa 0,0 mm 8,6 km/h (2 Bft) S-SW 0,83 h 0,3 mm 0,3 UV-I 384 W/m 15,1 C 20,2 km/h (4 Bft)
13.10.2017 15:00 19,6 C 72 % 1025,2 hPa 0,0 mm 8,4 km/h (2 Bft) O 0,17 h 0,2 mm 0,2 UV-I 167 W/m 14,4 C 18,3 km/h (3 Bft)
13.10.2017 16:00 19,3 C 71 % 1025,1 hPa 0,0 mm 9,9 km/h (2 Bft) O 0,08 h 0,1 mm 0,1 UV-I 96 W/m 14,0 C 21,3 km/h (4 Bft)
13.10.2017 17:00 18,7 C 77 % 1025,2 hPa 0,0 mm 5,6 km/h (1 Bft) O 0,17 h 0,1 mm 0,0 UV-I 64 W/m 14,6 C 12,2 km/h (2 Bft)
13.10.2017 18:00 18,3 C 78 % 1025,3 hPa 0,0 mm 2,6 km/h (1 Bft) O 0,08 h 0,1 mm 0,0 UV-I 20 W/m 14,5 C 5,9 km/h (2 Bft)
13.10.2017 19:00 17,3 C 82 % 1025,5 hPa 0,0 mm 1,0 km/h (0 Bft) O 0,00 h 0,0 mm 0,0 UV-I 0 W/m 14,1 C 4,1 km/h (1 Bft)
13.10.2017 20:00 16,9 C 84 % 1025,6 hPa 0,0 mm 0,1 km/h (0 Bft) N 0,00 h 0,0 mm 0,0 UV-I 0 W/m 14,2 C 0,6 km/h (0 Bft)
13.10.2017 21:00 16,5 C 86 % 1025,6 hPa 0,0 mm 0,6 km/h (0 Bft) O 0,00 h 0,0 mm 0,0 UV-I 0 W/m 14,1 C 2,9 km/h (1 Bft)
13.10.2017 22:00 16,3 C 85 % 1025,7 hPa 0,0 mm 2,4 km/h (1 Bft) S 0,00 h 0,0 mm 0,0 UV-I 0 W/m 13,9 C 7,6 km/h (2 Bft)
13.10.2017 23:00 15,9 C 85 % 1025,9 hPa 0,0 mm 2,2 km/h (1 Bft) S 0,00 h 0,0 mm 0,0 UV-I 0 W/m 13,4 C 7,0 km/h (2 Bft)
14.10.2017 00:00 15,2 C 87 % 1026,2 hPa 0,0 mm 2,1 km/h (1 Bft) S 0,00 h 0,0 mm 0,0 UV-I 0 W/m 13,0 C 6,7 km/h (2 Bft)
14.10.2017 01:00 14,5 C 89 % 1026,3 hPa 0,0 mm 1,9 km/h (1 Bft) S-SO 0,00 h 0,0 mm 0,0 UV-I 0 W/m 12,6 C 5,7 km/h (1 Bft)
14.10.2017 02:00 14,1 C 90 % 1026,4 hPa 0,0 mm 2,9 km/h (1 Bft) S-SO 0,00 h 0,0 mm 0,0 UV-I 0 W/m 12,4 C 7,2 km/h (2 Bft)
14.10.2017 03:00 13,7 C 91 % 1026,3 hPa 0,0 mm 2,9 km/h (1 Bft) S-SO 0,00 h 0,0 mm 0,0 UV-I 0 W/m 12,2 C 7,4 km/h (2 Bft)
14.10.2017 04:00 13,3 C 91 % 1026,1 hPa 0,0 mm 0,9 km/h (0 Bft) S 0,00 h 0,0 mm 0,0 UV-I 0 W/m 11,9 C 1,8 km/h (1 Bft)
14.10.2017 05:00 12,6 C 94 % 1026,1 hPa 0,0 mm 0,7 km/h (0 Bft) S 0,00 h 0,0 mm 0,0 UV-I 0 W/m 11,7 C 3,1 km/h (1 Bft)
14.10.2017 06:00 12,5 C 95 % 1026,3 hPa 0,0 mm 1,1 km/h (1 Bft) S-SO 0,00 h 0,0 mm 0,0 UV-I 0 W/m 11,7 C 3,9 km/h (1 Bft)
14.10.2017 07:00 12,2 C 96 % 1026,4 hPa 0,0 mm 2,1 km/h (1 Bft) S-SO 0,00 h 0,0 mm 0,0 UV-I 3 W/m 11,5 C 6,3 km/h (2 Bft)
14.10.2017 08:00 12,0 C 96 % 1026,8 hPa 0,0 mm 1,6 km/h (1 Bft) SO 0,00 h 0,0 mm 0,0 UV-I 17 W/m 11,4 C 5,0 km/h (1 Bft)
14.10.2017 09:00 12,7 C 97 % 1027,2 hPa 0,0 mm 1,5 km/h (1 Bft) O 0,58 h 0,0 mm 0,1 UV-I 151 W/m 12,2 C 5,9 km/h (2 Bft)
14.10.2017 10:00 14,9 C 93 % 1027,4 hPa 0,0 mm 2,9 km/h (1 Bft) SO 1,00 h 0,1 mm 0,3 UV-I 306 W/m 13,8 C 8,9 km/h (2 Bft)
14.10.2017 11:00 17,6 C 83 % 1027,5 hPa 0,0 mm 3,7 km/h (1 Bft) S-SO 1,00 h 0,2 mm 0,7 UV-I 409 W/m 14,8 C 10,4 km/h (2 Bft)
14.10.2017 12:00 20,1 C 73 % 1027,3 hPa 0,0 mm 4,4 km/h (1 Bft) S-SO 1,00 h 0,2 mm 0,6 UV-I 469 W/m 15,2 C 11,8 km/h (2 Bft)
14.10.2017 13:00 21,7 C 69 % 1026,7 hPa 0,0 mm 3,9 km/h (1 Bft) S-SW 1,00 h 0,3 mm 0,6 UV-I 477 W/m 15,6 C 11,1 km/h (2 Bft)
14.10.2017 14:00 23,1 C 63 % 1026,1 hPa 0,0 mm 4,5 km/h (1 Bft) SO 1,00 h 0,3 mm 0,2 UV-I 445 W/m 15,7 C 11,5 km/h (2 Bft)
14.10.2017 15:00 23,6 C 60 % 1025,9 hPa 0,0 mm 3,5 km/h (1 Bft) S 1,00 h 0,3 mm 0,1 UV-I 367 W/m 15,4 C 10,2 km/h (2 Bft)
14.10.2017 16:00 22,6 C 63 % 1025,4 hPa 0,0 mm 3,1 km/h (1 Bft) S 1,00 h 0,3 mm 0,0 UV-I 252 W/m 15,1 C 8,7 km/h (2 Bft)
14.10.2017 17:00 21,7 C 67 % 1025,2 hPa 0,0 mm 2,1 km/h (1 Bft) SO 0,92 h 0,2 mm 0,0 UV-I 126 W/m 15,3 C 7,2 km/h (2 Bft)
14.10.2017 18:00 20,1 C 73 % 1025,4 hPa 0,0 mm 0,6 km/h (0 Bft) SO 0,08 h 0,1 mm 0,0 UV-I 15 W/m 15,1 C 2,0 km/h (1 Bft)
14.10.2017 19:00 17,4 C 83 % 1025,9 hPa 0,0 mm 0,0 km/h (0 Bft) N 0,00 h 0,0 mm 0,0 UV-I 0 W/m 14,5 C 0,0 km/h (0 Bft)
14.10.2017 20:00 16,1 C 88 % 1025,9 hPa 0,0 mm 0,1 km/h (0 Bft) N 0,00 h 0,0 mm 0,0 UV-I 0 W/m 14,0 C 0,7 km/h (0 Bft)
14.10.2017 21:00 14,9 C 90 % 1026,1 hPa 0,0 mm 0,1 km/h (0 Bft) O 0,00 h 0,0 mm 0,0 UV-I 0 W/m 13,2 C 0,7 km/h (0 Bft)
14.10.2017 22:00 14,4 C 93 % 1026,1 hPa 0,0 mm 0,6 km/h (0 Bft) O 0,00 h 0,0 mm 0,0 UV-I 0 W/m 13,2 C 2,4 km/h (1 Bft)
14.10.2017 23:00 14,0 C 93 % 1026,1 hPa 0,0 mm 1,0 km/h (0 Bft) O 0,00 h 0,0 mm 0,0 UV-I 0 W/m 12,8 C 3,7 km/h (1 Bft)
15.10.2017 00:00 13,9 C 92 % 1025,8 hPa 0,0 mm 2,8 km/h (1 Bft) S-SO 0,00 h 0,0 mm 0,0 UV-I 0 W/m 12,7 C 8,9 km/h (2 Bft)
15.10.2017 01:00 13,7 C 93 % 1025,3 hPa 0,0 mm 2,8 km/h (1 Bft) O 0,00 h 0,0 mm 0,0 UV-I 0 W/m 12,6 C 8,5 km/h (2 Bft)
15.10.2017 02:00 13,2 C 94 % 1025,2 hPa 0,0 mm 2,0 km/h (1 Bft) O 0,00 h 0,0 mm 0,0 UV-I 0 W/m 12,2 C 6,9 km/h (2 Bft)
15.10.2017 03:00 12,8 C 95 % 1025,0 hPa 0,0 mm 1,8 km/h (1 Bft) O-SO 0,00 h 0,0 mm 0,0 UV-I 0 W/m 12,0 C 6,9 km/h (2 Bft)
15.10.2017 04:00 12,5 C 95 % 1024,7 hPa 0,0 mm 1,3 km/h (1 Bft) SO 0,00 h 0,0 mm 0,0 UV-I 0 W/m 11,7 C 5,7 km/h (1 Bft)
15.10.2017 05:00 12,0 C 96 % 1024,7 hPa 0,0 mm 1,5 km/h (1 Bft) O 0,00 h 0,0 mm 0,0 UV-I 0 W/m 11,4 C 5,0 km/h (1 Bft)
15.10.2017 06:00 11,7 C 96 % 1024,7 hPa 0,0 mm 1,3 km/h (1 Bft) S-SO 0,00 h 0,0 mm 0,0 UV-I 0 W/m 11,1 C 5,2 km/h (1 Bft)
15.10.2017 07:00 11,3 C 96 % 1024,7 hPa 0,0 mm 0,8 km/h (0 Bft) O 0,00 h 0,0 mm 0,0 UV-I 1 W/m 10,7 C 3,5 km/h (1 Bft)
15.10.2017 08:00 11,2 C 97 % 1024,7 hPa 0,0 mm 1,6 km/h (1 Bft) O 0,00 h 0,0 mm 0,0 UV-I 19 W/m 10,7 C 6,3 km/h (2 Bft)
15.10.2017 09:00 12,1 C 97 % 1024,6 hPa 0,0 mm 3,6 km/h (1 Bft) O 0,58 h 0,0 mm 0,1 UV-I 144 W/m 11,6 C 10,6 km/h (2 Bft)
15.10.2017 10:00 14,1 C 93 % 1024,5 hPa 0,0 mm 4,2 km/h (1 Bft) O 1,00 h 0,1 mm 0,2 UV-I 304 W/m 12,9 C 12,0 km/h (2 Bft)
15.10.2017 11:00 16,8 C 85 % 1024,1 hPa 0,0 mm 4,3 km/h (1 Bft) O-SO 1,00 h 0,2 mm 0,6 UV-I 415 W/m 14,2 C 13,0 km/h (3 Bft)
15.10.2017 12:00 19,6 C 73 % 1023,6 hPa 0,0 mm 4,8 km/h (1 Bft) O-SO 1,00 h 0,2 mm 0,6 UV-I 468 W/m 14,7 C 13,7 km/h (3 Bft)
15.10.2017 13:00 21,7 C 66 % 1022,8 hPa 0,0 mm 5,8 km/h (1 Bft) O-SO 1,00 h 0,3 mm 0,3 UV-I 478 W/m 15,1 C 17,8 km/h (3 Bft)
15.10.2017 14:00 23,5 C 59 % 1022,1 hPa 0,0 mm 5,6 km/h (1 Bft) O 1,00 h 0,3 mm 0,2 UV-I 443 W/m 15,1 C 16,6 km/h (3 Bft)
15.10.2017 15:00 24,1 C 57 % 1021,6 hPa 0,0 mm 5,5 km/h (1 Bft) O-SO 1,00 h 0,3 mm 0,1 UV-I 364 W/m 15,1 C 15,4 km/h (3 Bft)
15.10.2017 16:00 23,3 C 60 % 1021,3 hPa 0,0 mm 4,3 km/h (1 Bft) O-SO 1,00 h 0,3 mm 0,0 UV-I 252 W/m 15,1 C 12,6 km/h (3 Bft)
15.10.2017 17:00 22,1 C 64 % 1021,0 hPa 0,0 mm 3,4 km/h (1 Bft) SO 0,92 h 0,2 mm 0,0 UV-I 120 W/m 14,9 C 10,4 km/h (2 Bft)
15.10.2017 18:00 20,6 C 69 % 1021,0 hPa 0,0 mm 2,2 km/h (1 Bft) O 0,08 h 0,1 mm 0,0 UV-I 16 W/m 14,6 C 6,9 km/h (2 Bft)
15.10.2017 19:00 18,8 C 75 % 1021,4 hPa 0,0 mm 2,2 km/h (1 Bft) O 0,00 h 0,0 mm 0,0 UV-I 0 W/m 14,2 C 6,3 km/h (2 Bft)
15.10.2017 20:00 17,5 C 77 % 1021,6 hPa 0,0 mm 2,2 km/h (1 Bft) O 0,00 h 0,0 mm 0,0 UV-I 0 W/m 13,5 C 7,8 km/h (2 Bft)
15.10.2017 21:00 16,2 C 80 % 1021,8 hPa 0,0 mm 1,9 km/h (1 Bft) O 0,00 h 0,0 mm 0,0 UV-I 0 W/m 12,8 C 6,3 km/h (2 Bft)
15.10.2017 22:00 15,6 C 83 % 1022,1 hPa 0,0 mm 2,5 km/h (1 Bft) O 0,00 h 0,0 mm 0,0 UV-I 0 W/m 12,6 C 7,4 km/h (2 Bft)
15.10.2017 23:00 14,9 C 85 % 1022,4 hPa 0,0 mm 1,4 km/h (1 Bft) O 0,00 h 0,0 mm 0,0 UV-I 0 W/m 12,4 C 5,9 km/h (2 Bft)
Min-Datum _ 09.10.17 15.10.17 12.10.17 - 09.10.17 - - - - - 12.10.17 09.10.17
_ Min-Zeit 03:35 15:40 03:25 - 00:20 - - - - - 20:55 00:20
Minimum _ 9,7 C 55 % 1014,1 hPa - 0,0 km/h (0 Bft) - - - - - 8,5 C 0,0 km/h (0 Bft)
Max-Datum _ 15.10.17 09.10.17 14.10.17 10.10.17 12.10.17 - 10.10.17 13.10.17 13.10.17 13.10.17 14.10.17 12.10.17
_ Max-Zeit 15:35 00:00 10:55 06:35 07:30 - 14:05 14:00 12:35 12:10 14:05 07:30
Maximum _ 24,3 C 97 % 1027,6 hPa 0,4 mm 26,2 km/h
W-NW (4 Bft)
- 0,08 h 0,3 mm 1,0 UV-I 654 W/m 16,2 C 53,3 km/h
W-NW (7 Bft)
Durchschnitt _ 14,5 C 85 % 1021,0 hPa #1,4 mm 3,9 km/h (1 Bft) O #26:50 h #8,179 mm 0,3 UV-I 156 W/m 11,9 C 10,2 km/h (2 Bft)



© 1998 - 2017 www.pulheimwetter.de